STARLINK-1167, 45071

Orbit data source: Space-Track

STARLINK-1167, 45071 is a payload satellite owned by SpaceX/Seattle (US) in LEO that was launched on Wed, 29 Jan 2020 UTC via an FALCON 9 launch vehicle from the Air Force Eastern Test Range (AFETR). Payload-class satellites include a variety of spacecraft equipped with specific instruments for various scientific and technological missions. These include communications satellites like Starlink; space stations such as the ISS; scientific satellites like the Hubble; Earth observation satellites from companies like Planet Labs, Umbra, and HawkEye 360; GPS; miniature CubeSats for education and research; and military/defense satellites.

Loading next visibility...
Identifier
45071, 2020-006AD
Orbit
LEO
Country
Flag of USUS
Related business
Manufacturer
SpaceX/Seattle
Mission
Operational Commercial Communications
Bus & Motor
STARLINK, Unknown motor
Mass
260 kg wet, ~248 kg dry
Launch date (UTC)
2020-01-29 (6 years ago)
Launch vehicle
FALCON 9
Launch site
Air Force Eastern Test Range (AFETR)
Object type
Payload
Rocket body
Debris
Shape & HBR
Box + 1 Pan, 10.1 m
Radar Cross Section
13.562 m², Large (>1 m²)

Expand to show TLE details & history
Last TLE update: 7 hours ago

TLE from 7 hours ago
0 STARLINK-1167
1 45071U 20006AD  25289.15346872  .00014012  00000-0  95718-3 0  9998
2 45071  53.0540 195.4688 0001463  85.7337 274.3819 15.06420711314957
Epoch: 2025-10-16T03:40Z
TLE epoch observation values (Epoch: 2025-10-16T03:40:59.697Z)
Latitude
-0.00003°
Longitude
115.30276°
Altitude
547.95 km
Speed
7.589 km/s
True Right ascension
13h 01m 52s
True Declination
0° 00' 00"
Sunlit
Object was in daylight at epoch
Visualization orbit readout
Latitude
Unknown
Longitude
Unknown
Altitude
Unknown
Speed
Unknown
Apparent Right ascension
Unknown
Apparent Declination
Unknown
Sunlit
N/A
Visualization observer readout
Local Sidereal Time
05:00:28
Azimuth
Unknown
Elevation
Unknown
Doppler factor
Unknown
Orbital elements
Apogee altitude
548.432 km
Perigee altitude
546.406 km
Semi-major axis
6,925.556 km
Eccentricity
0.00015
Inclination
53.054°
RAAN
195.4688°
Arg. of periapsis
85.7337°
True anomaly
274.36518°
Mean anomaly
274.3819°
Eccentric anomaly
274.37354°
Mean motion
3.76583 °/min
Orbital period
95.6 mins
BSTAR
0.00095718
Loading maneuver chart data...
Computing Atmospheric mass density...

Documentation

Showing up to 5 results
|